Location: Newark
(33.6672°N, 93.5965°W)
Time: 03:38:03
(UTC+00:00)

ISS - Visible Passes

Search period start: 11 December 2019 00:00
Search period end: 21 December 2019 00:00
Orbit: 411 x 421 km, 51.6° (Epoch: 11 December)

Date Brightness Start Highest point End Pass type
(mag) Time Alt. Az. Time Alt. Az. Time Alt. Az.
11 Dec -1.4 01:15:22 10° WNW 01:18:04 22° SW 01:18:07 22° SW visible
12 Dec -2.6 00:26:30 10° WNW 00:29:43 44° SW 00:32:56 10° SSE visible
12 Dec -3.8 23:37:57 10° NW 23:41:18 89° NNE 23:44:39 10° SE visible
14 Dec -0.4 00:27:34 10° W 00:29:14 13° SW 00:30:52 10° SSW visible
14 Dec -1.0 23:38:06 10° WNW 23:40:53 25° SW 23:43:41 10° S visible
20 Dec -1.7 12:15:09 10° SSW 12:18:05 30° SE 12:21:03 10° ENE visible
